Location: Nitra
(0.0000°N, 18.0833°E)
Time: 05:17:58
(UTC+01:00)

SWARM A - Pass Details

Date: 24 January 2021
Orbit: 428 x 433 km, 87.4° (Epoch: 04 March)

Event Time Altitude Azimuth Distance (km) Brightness Sun altitude
Rises 18:37:20 0° 174° (S) 2,401 8.2 -8.8°
Reaches altitude 10° 18:39:23 10° 170° (S) 1,532 7.1 -9.3°
Maximum altitude 18:42:39 60° 89° (E) 498 4.2 -10.1°
Drops below altitude 10° 18:45:55 10° 8° (N) 1,527 6.7 -10.9°
Sets 18:47:57 0° 5° (N) 2,391 7.7 -11.4°
